STARLINK-36037

Last updated on Wed Dec 31 2025 00:02:06 GMT+0000 (Coordinated Universal Time)

1 66613U 25270AB 25364.29043392 .00070497 00000+0 16732-2 0 9997 2 66613 43.0018 91.4432 0000903 78.0392 282.0566 15.40810927 7052
UTC large
Height (km)
Speed (km/s)
/
Latitude / Longitude
Inclination (degrees)
Orbital Period (minutes)
Azimuth
Elevation
Range (km)
Doppler Factor

Next 0 passes for location: London (51.5072 / 0.1276)

Sorry there are no passes over London.